Time,TemperatureF,DewpointF,PressureIn,WindDirection,WindDirectionDegrees,WindSpeedMPH,WindSpeedGustMPH,Humidity,HourlyPrecipIn,Conditions,Clouds,dailyrainin,SolarRadiationWatts/m^2,SoftwareType,DateUTC
2014-11-24 00:04:00,78.7,75.2,29.90,SSE,163,5.0,9.0,89,0.00,,OVC034,0.00,0.00,VWS V14.00,2014-11-24 05:04:00,
2014-11-24 00:09:00,78.9,75.1,29.90,South,175,4.0,7.0,88,0.00,,OVC034,0.00,0.00,VWS V14.00,2014-11-24 05:09:00,
2014-11-24 00:14:00,79.0,75.2,29.90,SSE,151,2.0,5.0,88,0.00,,OVC034,0.00,0.00,VWS V14.00,2014-11-24 05:14:00,
2014-11-24 00:19:00,79.1,75.2,29.90,SSE,157,5.0,5.0,88,0.00,,OVC034,0.00,0.00,VWS V14.00,2014-11-24 05:19:00,
2014-11-24 00:24:00,79.1,75.2,29.89,South,176,5.0,11.0,88,0.00,,OVC034,0.00,0.00,VWS V14.00,2014-11-24 05:24:00,
2014-11-24 00:29:00,79.2,75.3,29.89,SSE,158,4.0,5.0,88,0.00,,OVC034,0.00,0.00,VWS V14.00,2014-11-24 05:29:00,
2014-11-24 00:34:00,79.1,75.2,29.89,South,176,3.0,6.0,88,0.00,,OVC034,0.00,0.00,VWS V14.00,2014-11-24 05:34:00,
2014-11-24 00:39:00,79.1,75.2,29.89,SSE,165,1.0,4.0,88,0.00,,OVC034,0.00,0.00,VWS V14.00,2014-11-24 05:39:00,
2014-11-24 00:44:00,79.1,75.2,29.89,SSE,164,2.0,3.0,88,0.00,,OVC034,0.00,0.00,VWS V14.00,2014-11-24 05:44:00,
2014-11-24 00:49:00,79.1,75.2,29.89,ESE,121,3.0,4.0,88,0.00,,OVC034,0.00,0.00,VWS V14.00,2014-11-24 05:49:00,
2014-11-24 00:54:00,79.1,75.2,29.89,SSE,151,1.0,5.0,88,0.00,,OVC034,0.00,0.00,VWS V14.00,2014-11-24 05:54:00,
2014-11-24 00:59:00,79.0,75.2,29.90,South,188,1.0,3.0,88,0.00,,OVC034,0.00,0.00,VWS V14.00,2014-11-24 05:59:00,
2014-11-24 01:04:00,78.9,75.1,29.90,SSE,166,2.0,4.0,88,0.00,,OVC034,0.00,0.00,VWS V14.00,2014-11-24 06:04:00,
2014-11-24 01:09:00,78.8,74.9,29.90,SSW,201,0.0,3.0,88,0.00,,OVC034,0.00,0.00,VWS V14.00,2014-11-24 06:09:00,
2014-11-24 01:14:00,78.8,75.3,29.90,South,183,1.0,4.0,89,0.00,,OVC034,0.00,0.00,VWS V14.00,2014-11-24 06:14:00,
2014-11-24 01:19:00,78.8,75.3,29.90,SSE,167,3.0,4.0,89,0.00,,OVC034,0.00,0.00,VWS V14.00,2014-11-24 06:19:00,
2014-11-24 01:24:00,78.8,74.9,29.90,SSE,155,1.0,3.0,88,0.00,,OVC034,0.00,0.00,VWS V14.00,2014-11-24 06:24:00,
2014-11-24 01:29:00,78.7,75.2,29.90,South,169,3.0,5.0,89,0.00,,OVC034,0.00,0.00,VWS V14.00,2014-11-24 06:29:00,
2014-11-24 01:34:00,78.7,75.2,29.90,South,189,1.0,5.0,89,0.00,,OVC034,0.00,0.00,VWS V14.00,2014-11-24 06:34:00,
2014-11-24 01:39:00,78.8,75.3,29.90,South,169,2.0,5.0,89,0.00,,OVC034,0.00,0.00,VWS V14.00,2014-11-24 06:39:00,
2014-11-24 01:44:00,78.8,75.3,29.89,SSE,163,2.0,4.0,89,0.00,,OVC034,0.00,0.00,VWS V14.00,2014-11-24 06:44:00,
2014-11-24 01:49:00,78.7,75.2,29.89,SSE,154,3.0,4.0,89,0.00,,OVC034,0.00,0.00,VWS V14.00,2014-11-24 06:49:00,
2014-11-24 01:54:00,78.7,75.2,29.89,SE,127,4.0,6.0,89,0.00,,OVC034,0.00,0.00,VWS V14.00,2014-11-24 06:54:00,
2014-11-24 01:59:00,78.6,75.1,29.89,SE,143,6.0,7.0,89,0.00,,OVC034,0.00,0.00,VWS V14.00,2014-11-24 06:59:00,
2014-11-24 02:04:00,78.5,75.0,29.89,SSE,165,4.0,5.0,89,0.00,,OVC034,0.00,0.00,VWS V14.00,2014-11-24 07:04:00,
2014-11-24 02:09:00,78.4,75.2,29.89,SSE,163,3.0,5.0,90,0.00,,OVC034,0.00,0.00,VWS V14.00,2014-11-24 07:09:00,
2014-11-24 02:14:00,78.4,75.2,29.89,SSE,153,2.0,5.0,90,0.00,,OVC034,0.00,0.00,VWS V14.00,2014-11-24 07:14:00,
2014-11-24 02:19:00,78.3,75.1,29.89,SSE,159,3.0,4.0,90,0.00,,OVC034,0.00,0.00,VWS V14.00,2014-11-24 07:19:00,
2014-11-24 02:24:00,78.2,75.0,29.89,South,185,2.0,3.0,90,0.00,,OVC034,0.00,0.00,VWS V14.00,2014-11-24 07:24:00,
2014-11-24 02:29:00,78.0,74.8,29.89,SSE,160,2.0,3.0,90,0.00,,OVC034,0.00,0.00,VWS V14.00,2014-11-24 07:29:00,
2014-11-24 02:34:00,78.0,75.2,29.89,SSE,167,3.0,3.0,91,0.00,,OVC034,0.00,0.00,VWS V14.00,2014-11-24 07:34:00,
2014-11-24 02:39:00,77.9,75.1,29.89,South,190,3.0,3.0,91,0.00,,OVC034,0.00,0.00,VWS V14.00,2014-11-24 07:39:00,
2014-11-24 02:44:00,77.8,75.0,29.89,SSE,156,2.0,3.0,91,0.00,,OVC034,0.00,0.00,VWS V14.00,2014-11-24 07:44:00,
2014-11-24 02:49:00,77.7,74.9,29.89,SE,144,2.0,2.0,91,0.00,,OVC034,0.00,0.00,VWS V14.00,2014-11-24 07:49:00,
2014-11-24 02:54:00,77.6,74.8,29.89,SSE,160,2.0,2.0,91,0.00,,OVC034,0.00,0.00,VWS V14.00,2014-11-24 07:54:00,
2014-11-24 02:59:00,77.5,74.7,29.88,SSE,160,1.0,1.0,91,0.00,,OVC034,0.00,0.00,VWS V14.00,2014-11-24 07:59:00,
2014-11-24 03:04:00,77.4,74.9,29.88,SSE,160,0.0,1.0,92,0.00,,OVC034,0.00,0.00,VWS V14.00,2014-11-24 08:04:00,
2014-11-24 03:09:00,77.3,74.8,29.88,SSE,158,2.0,2.0,92,0.00,,OVC034,0.00,0.00,VWS V14.00,2014-11-24 08:09:00,
2014-11-24 03:14:00,77.2,74.7,29.88,SSE,158,1.0,2.0,92,0.00,,OVC034,0.00,0.00,VWS V14.00,2014-11-24 08:14:00,
2014-11-24 03:19:00,77.1,74.6,29.88,South,180,1.0,2.0,92,0.00,,OVC034,0.00,0.00,VWS V14.00,2014-11-24 08:19:00,
2014-11-24 03:24:00,77.0,74.5,29.88,South,173,1.0,3.0,92,0.00,,OVC034,0.00,0.00,VWS V14.00,2014-11-24 08:24:00,
2014-11-24 03:29:00,77.0,74.8,29.88,SSE,157,2.0,4.0,93,0.00,,OVC034,0.00,0.00,VWS V14.00,2014-11-24 08:29:00,
2014-11-24 03:34:00,77.0,74.8,29.88,SSE,161,1.0,3.0,93,0.00,,OVC034,0.00,0.00,VWS V14.00,2014-11-24 08:34:00,
2014-11-24 03:39:00,77.0,74.8,29.88,SSE,159,1.0,2.0,93,0.00,,OVC034,0.00,0.00,VWS V14.00,2014-11-24 08:39:00,
2014-11-24 03:44:00,76.9,74.7,29.88,SSE,162,2.0,2.0,93,0.00,,OVC034,0.00,0.00,VWS V14.00,2014-11-24 08:44:00,
2014-11-24 03:49:00,76.9,74.7,29.88,SSE,162,2.0,2.0,93,0.00,,OVC034,0.00,0.00,VWS V14.00,2014-11-24 08:49:00,
2014-11-24 03:54:00,77.0,74.8,29.88,SSE,156,3.0,4.0,93,0.00,,OVC034,0.00,0.00,VWS V14.00,2014-11-24 08:54:00,
2014-11-24 03:59:00,76.9,74.7,29.88,SSE,163,1.0,3.0,93,0.00,,OVC034,0.00,0.00,VWS V14.00,2014-11-24 08:59:00,
2014-11-24 04:04:00,76.9,74.7,29.88,South,173,2.0,3.0,93,0.00,,OVC034,0.00,0.00,VWS V14.00,2014-11-24 09:04:00,
2014-11-24 04:09:00,76.9,74.7,29.88,SSE,158,0.0,3.0,93,0.00,,OVC034,0.00,0.00,VWS V14.00,2014-11-24 09:09:00,
2014-11-24 04:14:00,76.9,74.7,29.88,SSE,159,1.0,2.0,93,0.00,,OVC034,0.00,0.00,VWS V14.00,2014-11-24 09:14:00,
2014-11-24 04:19:00,76.8,74.6,29.88,SSE,159,1.0,1.0,93,0.00,,OVC034,0.00,0.00,VWS V14.00,2014-11-24 09:19:00,
2014-11-24 04:24:00,76.8,74.9,29.89,SSE,159,1.0,3.0,94,0.00,,OVC034,0.00,0.00,VWS V14.00,2014-11-24 09:24:00,
2014-11-24 04:29:00,76.8,74.9,29.89,SSE,160,2.0,2.0,94,0.00,,OVC034,0.00,0.00,VWS V14.00,2014-11-24 09:29:00,
2014-11-24 04:34:00,76.8,74.9,29.88,SSE,147,3.0,4.0,94,0.00,,OVC034,0.00,0.00,VWS V14.00,2014-11-24 09:34:00,
2014-11-24 04:39:00,76.8,74.9,29.89,SSE,157,2.0,3.0,94,0.00,,OVC034,0.00,0.00,VWS V14.00,2014-11-24 09:39:00,
2014-11-24 04:44:00,76.8,74.9,29.88,SSE,148,3.0,3.0,94,0.00,,OVC034,0.00,0.00,VWS V14.00,2014-11-24 09:44:00,
2014-11-24 04:49:00,76.7,74.8,29.89,SSE,153,2.0,3.0,94,0.00,,OVC034,0.00,0.00,VWS V14.00,2014-11-24 09:49:00,
2014-11-24 04:54:00,76.7,74.8,29.89,South,173,2.0,3.0,94,0.00,,OVC034,0.00,0.00,VWS V14.00,2014-11-24 09:54:00,
2014-11-24 04:59:00,76.7,74.8,29.89,SSE,151,1.0,2.0,94,0.00,,OVC034,0.00,0.00,VWS V14.00,2014-11-24 09:59:00,
2014-11-24 05:04:00,76.7,74.8,29.89,South,187,1.0,2.0,94,0.00,,OVC034,0.00,0.00,VWS V14.00,2014-11-24 10:04:00,
2014-11-24 05:09:00,76.7,74.8,29.89,SSE,168,1.0,2.0,94,0.00,,OVC034,0.00,0.00,VWS V14.00,2014-11-24 10:09:00,
2014-11-24 05:14:00,76.7,74.8,29.89,South,185,2.0,4.0,94,0.00,,OVC034,0.00,0.00,VWS V14.00,2014-11-24 10:14:00,
2014-11-24 05:19:00,76.7,74.8,29.89,SSE,160,0.0,1.0,94,0.00,,OVC034,0.00,0.00,VWS V14.00,2014-11-24 10:19:00,
2014-11-24 05:24:00,76.6,74.8,29.90,South,181,0.0,1.0,94,0.00,,OVC034,0.00,0.00,VWS V14.00,2014-11-24 10:24:00,
2014-11-24 05:29:00,76.5,74.7,29.90,SSE,164,0.0,1.0,94,0.00,,OVC034,0.00,0.00,VWS V14.00,2014-11-24 10:29:00,
2014-11-24 05:34:00,76.5,75.0,29.90,SSE,163,0.0,1.0,95,0.00,,OVC034,0.00,0.00,VWS V14.00,2014-11-24 10:34:00,
2014-11-24 05:39:00,76.4,74.9,29.90,SSE,163,0.0,1.0,95,0.00,,OVC034,0.00,0.00,VWS V14.00,2014-11-24 10:39:00,
2014-11-24 05:44:00,76.4,74.9,29.90,SSE,163,0.0,1.0,95,0.00,,OVC034,0.00,0.00,VWS V14.00,2014-11-24 10:44:00,
2014-11-24 05:49:00,76.3,74.8,29.90,SSE,163,0.0,1.0,95,0.00,,OVC034,0.00,0.00,VWS V14.00,2014-11-24 10:49:00,
2014-11-24 05:54:00,76.2,74.7,29.91,SSE,163,0.0,1.0,95,0.00,,OVC034,0.00,0.00,VWS V14.00,2014-11-24 10:54:00,
2014-11-24 05:59:00,76.1,74.6,29.91,SSE,163,0.0,0.0,95,0.00,,OVC034,0.00,0.00,VWS V14.00,2014-11-24 10:59:00,
2014-11-24 06:04:00,76.0,74.2,29.91,SSE,163,0.0,0.0,94,0.00,,OVC034,0.00,0.00,VWS V14.00,2014-11-24 11:04:00,
2014-11-24 06:09:00,75.9,74.4,29.91,SSE,163,0.0,0.0,95,0.00,,OVC034,0.00,0.00,VWS V14.00,2014-11-24 11:09:00,
2014-11-24 06:14:00,75.8,74.3,29.91,SSE,163,0.0,0.0,95,0.00,,OVC034,0.00,0.00,VWS V14.00,2014-11-24 11:14:00,
2014-11-24 06:19:00,75.8,74.3,29.91,SSE,163,0.0,1.0,95,0.00,,OVC034,0.00,0.00,VWS V14.00,2014-11-24 11:19:00,
2014-11-24 06:24:00,75.7,74.2,29.91,SSE,163,0.0,0.0,95,0.00,,OVC034,0.00,0.00,VWS V14.00,2014-11-24 11:24:00,
2014-11-24 06:29:00,75.7,74.2,29.92,SSE,163,0.0,1.0,95,0.00,,OVC034,0.00,0.00,VWS V14.00,2014-11-24 11:29:00,
2014-11-24 06:34:00,75.6,74.1,29.92,SSE,163,0.0,1.0,95,0.00,,OVC034,0.00,0.00,VWS V14.00,2014-11-24 11:34:00,
2014-11-24 06:39:00,75.6,74.1,29.92,SSE,163,0.0,1.0,95,0.00,,OVC034,0.00,0.00,VWS V14.00,2014-11-24 11:39:00,
2014-11-24 06:44:00,75.5,74.0,29.92,SSE,163,0.0,1.0,95,0.00,,OVC034,0.00,0.00,VWS V14.00,2014-11-24 11:44:00,
2014-11-24 06:49:00,75.5,74.0,29.92,SSE,163,0.0,1.0,95,0.00,,OVC034,0.00,0.00,VWS V14.00,2014-11-24 11:49:00,
2014-11-24 06:54:00,75.5,74.0,29.92,SSE,163,0.0,1.0,95,0.00,,OVC034,0.00,0.00,VWS V14.00,2014-11-24 11:54:00,
2014-11-24 06:59:00,75.5,74.0,29.92,SSE,163,1.0,1.0,95,0.00,,OVC034,0.00,0.00,VWS V14.00,2014-11-24 11:59:00,
2014-11-24 07:04:00,75.5,74.0,29.93,South,181,0.0,1.0,95,0.00,,OVC034,0.00,0.00,VWS V14.00,2014-11-24 12:04:00,
2014-11-24 07:09:00,75.5,74.3,29.93,South,181,0.0,1.0,96,0.00,,OVC034,0.00,9.00,VWS V14.00,2014-11-24 12:09:00,
2014-11-24 07:14:00,75.6,74.4,29.94,South,177,0.0,1.0,96,0.00,,OVC034,0.00,12.00,VWS V14.00,2014-11-24 12:14:00,
2014-11-24 07:19:00,75.8,74.6,29.94,ENE,69,0.0,1.0,96,0.00,,OVC034,0.00,16.00,VWS V14.00,2014-11-24 12:19:00,
2014-11-24 07:24:00,76.0,74.8,29.94,ENE,70,0.0,2.0,96,0.00,,OVC034,0.00,19.00,VWS V14.00,2014-11-24 12:24:00,
2014-11-24 07:29:00,76.2,75.0,29.94,SE,126,0.0,1.0,96,0.00,,OVC034,0.00,23.00,VWS V14.00,2014-11-24 12:29:00,
2014-11-24 07:34:00,76.5,75.3,29.94,SE,146,0.0,2.0,96,0.00,,,0.00,26.00,VWS V14.00,2014-11-24 12:34:00,
2014-11-24 07:39:00,76.8,75.6,29.94,ESE,109,2.0,2.0,96,0.00,,,0.00,28.00,VWS V14.00,2014-11-24 12:39:00,
2014-11-24 07:44:00,77.1,75.9,29.94,SSE,155,1.0,2.0,96,0.00,,,0.00,33.00,VWS V14.00,2014-11-24 12:44:00,
2014-11-24 07:49:00,77.4,75.9,29.94,SW,227,1.0,2.0,95,0.00,,,0.00,35.00,VWS V14.00,2014-11-24 12:49:00,
2014-11-24 07:54:00,77.7,76.2,29.95,SSE,157,3.0,3.0,95,0.00,,,0.00,39.00,VWS V14.00,2014-11-24 12:54:00,
2014-11-24 07:59:00,78.1,76.2,29.95,SSE,162,0.0,2.0,94,0.00,,,0.00,42.00,VWS V14.00,2014-11-24 12:59:00,
2014-11-24 08:04:00,78.5,76.6,29.95,SSE,167,1.0,3.0,94,0.00,,,0.00,46.00,VWS V14.00,2014-11-24 13:04:00,
2014-11-24 08:09:00,79.0,76.8,29.95,SE,134,4.0,6.0,93,0.00,,,0.00,49.00,VWS V14.00,2014-11-24 13:09:00,
2014-11-24 08:14:00,79.4,76.9,29.95,South,170,1.0,3.0,92,0.00,,,0.00,51.00,VWS V14.00,2014-11-24 13:14:00,
2014-11-24 08:19:00,79.8,76.9,29.95,SSE,161,3.0,4.0,91,0.00,,,0.00,53.00,VWS V14.00,2014-11-24 13:19:00,
2014-11-24 08:24:00,80.3,77.1,29.96,SE,136,3.0,4.0,90,0.00,,,0.00,49.00,VWS V14.00,2014-11-24 13:24:00,
2014-11-24 08:29:00,80.5,77.0,29.96,SE,140,6.0,9.0,89,0.00,,,0.00,56.00,VWS V14.00,2014-11-24 13:29:00,
2014-11-24 08:34:00,80.8,77.3,29.96,SSW,207,4.0,5.0,89,0.00,,,0.00,63.00,VWS V14.00,2014-11-24 13:34:00,
2014-11-24 08:39:00,81.1,77.2,29.96,SSE,159,3.0,6.0,88,0.00,,,0.00,63.00,VWS V14.00,2014-11-24 13:39:00,
2014-11-24 08:44:00,81.4,77.5,29.96,SSW,212,4.0,8.0,88,0.00,,,0.00,69.00,VWS V14.00,2014-11-24 13:44:00,
2014-11-24 08:49:00,81.7,77.5,29.96,South,172,4.0,5.0,87,0.00,,,0.00,69.00,VWS V14.00,2014-11-24 13:49:00,
2014-11-24 08:54:00,82.0,77.8,29.96,SSE,159,5.0,5.0,87,0.00,,,0.00,37.00,VWS V14.00,2014-11-24 13:54:00,
2014-11-24 08:59:00,82.3,77.7,29.96,South,177,1.0,2.0,86,0.00,,,0.00,46.00,VWS V14.00,2014-11-24 13:59:00,
2014-11-24 09:04:00,82.6,77.6,29.96,SSE,159,5.0,5.0,85,0.00,,,0.00,79.00,VWS V14.00,2014-11-24 14:04:00,
2014-11-24 09:09:00,82.9,77.6,29.96,SSE,150,4.0,7.0,84,0.00,,,0.00,84.00,VWS V14.00,2014-11-24 14:09:00,
2014-11-24 09:14:00,82.9,77.6,29.96,South,169,3.0,6.0,84,0.00,,,0.00,93.00,VWS V14.00,2014-11-24 14:14:00,
2014-11-24 09:20:00,83.1,77.4,29.96,SE,129,3.0,5.0,83,0.00,,,0.00,76.00,VWS V14.00,2014-11-24 14:20:00,
2014-11-24 09:25:00,83.3,77.2,29.96,SW,216,4.0,6.0,82,0.00,,,0.00,102.00,VWS V14.00,2014-11-24 14:25:00,
2014-11-24 09:30:00,83.1,77.0,29.96,WSW,244,5.0,6.0,82,0.00,,,0.00,54.00,VWS V14.00,2014-11-24 14:30:00,
2014-11-24 09:35:00,82.9,77.2,29.96,South,186,6.0,9.0,83,0.00,,FEW020,0.00,42.00,VWS V14.00,2014-11-24 14:35:00,
2014-11-24 09:40:00,82.6,76.9,29.96,SW,214,2.0,5.0,83,0.00,,FEW020,0.00,74.00,VWS V14.00,2014-11-24 14:40:00,
2014-11-24 09:45:00,82.5,76.8,29.96,South,169,2.0,4.0,83,0.00,,FEW020,0.00,54.00,VWS V14.00,2014-11-24 14:45:00,
2014-11-24 09:50:00,82.6,76.9,29.96,SSW,195,5.0,9.0,83,0.00,,FEW020,0.00,44.00,VWS V14.00,2014-11-24 14:50:00,
2014-11-24 09:55:00,82.5,76.8,29.96,SSW,211,9.0,9.0,83,0.00,,FEW020,0.00,39.00,VWS V14.00,2014-11-24 14:55:00,
2014-11-24 10:00:00,82.3,76.6,29.96,SSE,157,4.0,6.0,83,0.00,,FEW020,0.00,33.00,VWS V14.00,2014-11-24 15:00:00,
2014-11-24 10:05:00,82.2,76.9,29.96,SSW,212,3.0,4.0,84,0.00,,FEW020,0.00,35.00,VWS V14.00,2014-11-24 15:05:00,
2014-11-24 10:10:00,82.2,76.9,29.96,SSW,198,2.0,4.0,84,0.00,,FEW020,0.00,46.00,VWS V14.00,2014-11-24 15:10:00,
2014-11-24 10:15:00,82.2,76.9,29.96,South,178,2.0,3.0,84,0.00,,FEW020,0.00,33.00,VWS V14.00,2014-11-24 15:15:00,
2014-11-24 10:20:00,82.4,77.1,29.96,SSE,168,2.0,3.0,84,0.00,,FEW020,0.00,49.00,VWS V14.00,2014-11-24 15:20:00,
2014-11-24 10:25:00,83.3,76.9,29.96,SW,215,3.0,7.0,81,0.00,,FEW020,0.00,107.00,VWS V14.00,2014-11-24 15:25:00,
2014-11-24 10:30:00,84.0,77.2,29.96,South,190,3.0,5.0,80,0.00,,FEW020,0.00,105.00,VWS V14.00,2014-11-24 15:30:00,
2014-11-24 10:35:00,84.5,77.3,29.96,SSE,157,4.0,4.0,79,0.00,,BKN037,0.00,111.00,VWS V14.00,2014-11-24 15:35:00,
2014-11-24 10:40:00,85.1,77.5,29.95,SSE,148,4.0,9.0,78,0.00,,BKN037,0.00,123.00,VWS V14.00,2014-11-24 15:40:00,
2014-11-24 10:45:00,85.5,77.9,29.95,South,176,3.0,6.0,78,0.00,,BKN037,0.00,125.00,VWS V14.00,2014-11-24 15:45:00,
2014-11-24 10:50:00,85.9,77.5,29.95,ESE,123,6.0,6.0,76,0.00,,BKN037,0.00,134.00,VWS V14.00,2014-11-24 15:50:00,
2014-11-24 10:55:00,85.9,77.1,29.95,South,170,4.0,6.0,75,0.00,,BKN037,0.00,95.00,VWS V14.00,2014-11-24 15:55:00,
2014-11-24 11:00:00,86.1,76.0,29.95,SE,137,9.0,11.0,72,0.00,,BKN037,0.00,128.00,VWS V14.00,2014-11-24 16:00:00,
2014-11-24 11:05:00,85.8,76.2,29.95,SSE,161,6.0,10.0,73,0.00,,BKN037,0.00,54.00,VWS V14.00,2014-11-24 16:05:00,
2014-11-24 11:10:00,85.4,76.2,29.95,South,173,4.0,7.0,74,0.00,,BKN037,0.00,62.00,VWS V14.00,2014-11-24 16:10:00,
2014-11-24 11:15:00,85.5,76.3,29.94,SW,217,4.0,4.0,74,0.00,,BKN037,0.00,67.00,VWS V14.00,2014-11-24 16:15:00,
2014-11-24 11:20:00,85.9,76.2,29.94,SE,140,3.0,6.0,73,0.00,,BKN037,0.00,70.00,VWS V14.00,2014-11-24 16:20:00,
2014-11-24 11:25:00,86.4,76.3,29.94,SSE,159,5.0,6.0,72,0.00,,BKN037,0.00,76.00,VWS V14.00,2014-11-24 16:25:00,
2014-11-24 11:30:00,86.8,75.8,29.94,SSW,205,4.0,6.0,70,0.00,,BKN037,0.00,79.00,VWS V14.00,2014-11-24 16:30:00,
2014-11-24 11:35:00,87.2,76.2,29.94,SW,231,4.0,5.0,70,0.00,,BKN030,0.00,63.00,VWS V14.00,2014-11-24 16:35:00,
2014-11-24 11:41:00,86.9,75.9,29.94,South,169,3.0,6.0,70,0.00,,BKN030,0.00,60.00,VWS V14.00,2014-11-24 16:41:00,
2014-11-24 11:46:00,86.3,75.8,29.93,SSW,197,2.0,5.0,71,0.00,,BKN030,0.00,63.00,VWS V14.00,2014-11-24 16:46:00,
2014-11-24 11:51:00,86.1,75.6,29.93,South,177,6.0,8.0,71,0.00,,BKN030,0.00,70.00,VWS V14.00,2014-11-24 16:51:00,
2014-11-24 11:56:00,86.2,76.5,29.93,South,171,3.0,4.0,73,0.00,,BKN030,0.00,142.00,VWS V14.00,2014-11-24 16:56:00,
2014-11-24 12:01:00,86.6,76.9,29.93,SSW,193,4.0,6.0,73,0.00,,BKN030,0.00,60.00,VWS V14.00,2014-11-24 17:01:00,
2014-11-24 12:06:00,86.3,76.6,29.93,SSE,159,2.0,5.0,73,0.00,,BKN030,0.00,62.00,VWS V14.00,2014-11-24 17:06:00,
2014-11-24 12:11:00,85.8,77.0,29.92,SSE,164,5.0,6.0,75,0.00,,BKN030,0.00,74.00,VWS V14.00,2014-11-24 17:11:00,
2014-11-24 12:16:00,85.9,77.5,29.92,SE,144,4.0,7.0,76,0.00,,BKN030,0.00,67.00,VWS V14.00,2014-11-24 17:16:00,
2014-11-24 12:21:00,85.7,77.7,29.92,SSE,157,4.0,6.0,77,0.00,,BKN030,0.00,111.00,VWS V14.00,2014-11-24 17:21:00,
2014-11-24 12:26:00,85.8,77.4,29.91,SSW,204,2.0,9.0,76,0.00,,BKN030,0.00,70.00,VWS V14.00,2014-11-24 17:26:00,
2014-11-24 12:31:00,85.8,77.0,29.91,South,178,3.0,9.0,75,0.00,,BKN030,0.00,158.00,VWS V14.00,2014-11-24 17:31:00,
2014-11-24 12:36:00,85.9,77.5,29.91,SW,228,6.0,7.0,76,0.00,,SCT033,0.00,149.00,VWS V14.00,2014-11-24 17:36:00,
2014-11-24 12:41:00,86.1,77.2,29.91,SE,124,3.0,9.0,75,0.00,,SCT033,0.00,142.00,VWS V14.00,2014-11-24 17:41:00,
2014-11-24 12:46:00,86.4,77.5,29.90,SSE,155,5.0,7.0,75,0.00,,SCT033,0.00,146.00,VWS V14.00,2014-11-24 17:46:00,
2014-11-24 12:51:00,86.6,77.7,29.90,SSE,160,4.0,10.0,75,0.00,,SCT033,0.00,155.00,VWS V14.00,2014-11-24 17:51:00,
2014-11-24 12:56:00,86.8,77.5,29.90,SSE,161,1.0,9.0,74,0.00,,SCT033,0.00,149.00,VWS V14.00,2014-11-24 17:56:00,
2014-11-24 13:01:00,86.8,77.1,29.90,SSE,159,5.0,6.0,73,0.00,,SCT033,0.00,135.00,VWS V14.00,2014-11-24 18:01:00,
2014-11-24 13:06:00,86.8,77.5,29.90,SSW,207,3.0,5.0,74,0.00,,SCT033,0.00,155.00,VWS V14.00,2014-11-24 18:06:00,
2014-11-24 13:11:00,86.6,76.9,29.90,SSE,153,5.0,8.0,73,0.00,,SCT033,0.00,158.00,VWS V14.00,2014-11-24 18:11:00,
2014-11-24 13:16:00,86.8,77.1,29.89,ESE,123,6.0,9.0,73,0.00,,SCT033,0.00,163.00,VWS V14.00,2014-11-24 18:16:00,
2014-11-24 13:21:00,87.2,77.1,29.89,South,182,2.0,5.0,72,0.00,,SCT033,0.00,156.00,VWS V14.00,2014-11-24 18:21:00,
2014-11-24 13:26:00,87.5,77.4,29.89,SE,137,10.0,13.0,72,0.00,,SCT033,0.00,162.00,VWS V14.00,2014-11-24 18:26:00,
2014-11-24 13:31:00,87.0,76.9,29.88,SSE,165,5.0,11.0,72,0.00,,SCT033,0.00,83.00,VWS V14.00,2014-11-24 18:31:00,
2014-11-24 13:36:00,86.6,76.5,29.88,SE,146,5.0,7.0,72,0.00,,SCT032,0.00,65.00,VWS V14.00,2014-11-24 18:36:00,
2014-11-24 13:41:00,86.6,76.9,29.88,SSE,155,4.0,4.0,73,0.00,,SCT032,0.00,95.00,VWS V14.00,2014-11-24 18:41:00,
2014-11-24 13:46:00,87.0,77.3,29.88,SSE,165,9.0,9.0,73,0.00,,SCT032,0.00,162.00,VWS V14.00,2014-11-24 18:46:00,
2014-11-24 13:51:00,86.8,76.7,29.88,SE,143,6.0,11.0,72,0.00,,SCT032,0.00,144.00,VWS V14.00,2014-11-24 18:51:00,
2014-11-24 13:56:00,86.7,76.6,29.88,South,170,3.0,7.0,72,0.00,,SCT032,0.00,109.00,VWS V14.00,2014-11-24 18:56:00,
2014-11-24 14:01:00,86.8,77.1,29.88,SE,129,4.0,4.0,73,0.00,,SCT032,0.00,67.00,VWS V14.00,2014-11-24 19:01:00,
2014-11-24 14:06:00,86.4,76.3,29.88,SSE,165,5.0,6.0,72,0.00,,SCT032,0.00,74.00,VWS V14.00,2014-11-24 19:06:00,
2014-11-24 14:11:00,86.4,76.7,29.88,SE,137,5.0,7.0,73,0.00,,SCT032,0.00,72.00,VWS V14.00,2014-11-24 19:11:00,
2014-11-24 14:16:00,86.0,76.3,29.88,South,173,4.0,10.0,73,0.00,,SCT032,0.00,54.00,VWS V14.00,2014-11-24 19:16:00,
2014-11-24 14:21:00,85.7,76.5,29.88,SSE,167,12.0,14.0,74,0.00,,SCT032,0.00,62.00,VWS V14.00,2014-11-24 19:21:00,
2014-11-24 14:27:00,85.7,76.5,29.88,South,181,7.0,7.0,74,0.00,,SCT032,0.00,62.00,VWS V14.00,2014-11-24 19:27:00,
2014-11-24 14:31:00,85.9,76.7,29.88,East,98,5.0,6.0,74,0.00,,SCT017,0.00,74.00,VWS V14.00,2014-11-24 19:31:00,
2014-11-24 14:37:00,85.9,77.1,29.88,SSE,156,4.0,5.0,75,0.00,,SCT017,0.00,105.00,VWS V14.00,2014-11-24 19:37:00,
2014-11-24 14:42:00,86.7,77.0,29.88,SSE,156,3.0,9.0,73,0.00,,SCT017,0.00,141.00,VWS V14.00,2014-11-24 19:42:00,
2014-11-24 14:47:00,86.8,76.7,29.88,South,173,5.0,11.0,72,0.00,,SCT017,0.00,58.00,VWS V14.00,2014-11-24 19:47:00,
2014-11-24 14:52:00,85.9,76.7,29.88,SE,136,3.0,6.0,74,0.00,,SCT017,0.00,137.00,VWS V14.00,2014-11-24 19:52:00,
2014-11-24 14:57:00,85.9,76.2,29.88,ESE,115,4.0,11.0,73,0.00,,SCT017,0.00,44.00,VWS V14.00,2014-11-24 19:57:00,
2014-11-24 15:02:00,85.6,76.0,29.89,South,175,6.0,10.0,73,0.00,,SCT017,0.00,39.00,VWS V14.00,2014-11-24 20:02:00,
2014-11-24 15:07:00,85.3,76.1,29.89,SE,132,7.0,11.0,74,0.00,,SCT017,0.00,84.00,VWS V14.00,2014-11-24 20:07:00,
2014-11-24 15:12:00,85.7,76.1,29.89,SSE,163,3.0,10.0,73,0.00,,SCT017,0.00,70.00,VWS V14.00,2014-11-24 20:12:00,
2014-11-24 15:17:00,86.0,76.3,29.88,South,188,4.0,5.0,73,0.00,,SCT017,0.00,123.00,VWS V14.00,2014-11-24 20:17:00,
2014-11-24 15:22:00,86.2,76.1,29.88,SSE,148,3.0,4.0,72,0.00,,SCT017,0.00,102.00,VWS V14.00,2014-11-24 20:22:00,
2014-11-24 15:27:00,86.3,76.2,29.89,SSE,165,4.0,7.0,72,0.00,,SCT017,0.00,40.00,VWS V14.00,2014-11-24 20:27:00,
2014-11-24 15:32:00,86.1,75.6,29.89,SSE,159,3.0,5.0,71,0.00,,SCT017,0.00,39.00,VWS V14.00,2014-11-24 20:32:00,
2014-11-24 15:37:00,86.0,75.1,29.89,SSE,155,5.0,9.0,70,0.00,,SCT017,0.00,100.00,VWS V14.00,2014-11-24 20:37:00,
2014-11-24 15:42:00,85.9,75.0,29.89,SSE,155,4.0,5.0,70,0.00,,SCT017,0.00,40.00,VWS V14.00,2014-11-24 20:42:00,
2014-11-24 15:47:00,85.7,75.6,29.89,SSE,147,4.0,4.0,72,0.00,,SCT017,0.00,35.00,VWS V14.00,2014-11-24 20:47:00,
2014-11-24 15:52:00,85.4,75.8,29.89,SE,140,6.0,6.0,73,0.00,,FEW040,0.00,39.00,VWS V14.00,2014-11-24 20:52:00,
2014-11-24 15:57:00,85.2,76.0,29.89,SE,130,5.0,6.0,74,0.00,,FEW040,0.00,40.00,VWS V14.00,2014-11-24 20:57:00,
2014-11-24 16:02:00,85.0,75.8,29.89,SSE,162,3.0,6.0,74,0.00,,FEW040,0.00,40.00,VWS V14.00,2014-11-24 21:02:00,
2014-11-24 16:07:00,85.0,76.2,29.90,SE,136,5.0,6.0,75,0.00,,FEW040,0.00,33.00,VWS V14.00,2014-11-24 21:07:00,
2014-11-24 16:12:00,84.9,76.1,29.90,SE,145,3.0,7.0,75,0.00,,FEW040,0.00,37.00,VWS V14.00,2014-11-24 21:12:00,
2014-11-24 16:17:00,84.9,75.7,29.90,SSE,162,5.0,6.0,74,0.00,,FEW040,0.00,33.00,VWS V14.00,2014-11-24 21:17:00,
2014-11-24 16:22:00,84.9,75.7,29.90,SSE,148,1.0,3.0,74,0.00,,FEW040,0.00,44.00,VWS V14.00,2014-11-24 21:22:00,
2014-11-24 16:27:00,84.8,75.2,29.90,South,179,3.0,3.0,73,0.00,,FEW040,0.00,25.00,VWS V14.00,2014-11-24 21:27:00,
2014-11-24 16:32:00,84.7,74.7,29.90,SE,146,5.0,6.0,72,0.00,,FEW060,0.00,21.00,VWS V14.00,2014-11-24 21:32:00,
2014-11-24 16:37:00,84.7,75.1,29.91,SSE,164,4.0,5.0,73,0.00,,FEW060,0.00,37.00,VWS V14.00,2014-11-24 21:37:00,
2014-11-24 16:42:00,84.7,74.7,29.91,SE,146,6.0,7.0,72,0.00,,FEW060,0.00,104.00,VWS V14.00,2014-11-24 21:42:00,
2014-11-24 16:48:00,84.7,75.1,29.91,South,169,4.0,6.0,73,0.00,,FEW060,0.00,118.00,VWS V14.00,2014-11-24 21:48:00,
2014-11-24 16:53:00,84.7,75.1,29.91,SSE,147,4.0,4.0,73,0.00,,FEW060,0.00,120.00,VWS V14.00,2014-11-24 21:53:00,
2014-11-24 16:58:00,84.6,75.8,29.91,South,173,5.0,7.0,75,0.00,,FEW060,0.00,79.00,VWS V14.00,2014-11-24 21:58:00,
2014-11-24 17:03:00,84.4,76.0,29.91,SSE,154,4.0,4.0,76,0.00,,FEW060,0.00,39.00,VWS V14.00,2014-11-24 22:03:00,
2014-11-24 17:08:00,84.2,75.8,29.91,South,169,2.0,7.0,76,0.00,,FEW060,0.00,32.00,VWS V14.00,2014-11-24 22:08:00,
2014-11-24 17:13:00,83.9,75.9,29.91,South,171,3.0,4.0,77,0.00,,FEW060,0.00,19.00,VWS V14.00,2014-11-24 22:13:00,
2014-11-24 17:18:00,83.6,76.0,29.92,SE,135,4.0,4.0,78,0.00,,FEW060,0.00,12.00,VWS V14.00,2014-11-24 22:18:00,
2014-11-24 17:23:00,83.3,76.1,29.92,SE,145,3.0,6.0,79,0.00,,FEW060,0.00,5.00,VWS V14.00,2014-11-24 22:23:00,
2014-11-24 17:28:00,83.0,76.2,29.92,SSE,150,7.0,7.0,80,0.00,,FEW060,0.00,0.00,VWS V14.00,2014-11-24 22:28:00,
2014-11-24 17:33:00,82.7,75.9,29.92,SE,136,5.0,5.0,80,0.00,,FEW030,0.00,0.00,VWS V14.00,2014-11-24 22:33:00,